Terminal Aerodrome Forecast
Issued by NWS

Home | Current Version | Previous Version | Text Only | Print | Product List | Glossary On
Versions: 1 2 3 4 5 6 7 8 9 10 11 12 13 14 15 16 17 18 19 20 21 22 23 24 25 26 27 28 29 30 31 32 33 34 35 36 37 38 39 40 41 42 43 44 45 46 47
000
FTUS45 KBOU 012225 AAC
TAFBJC
TAF AMD
KBJC 012225Z 0122/0218 16015KT P6SM VCSH SCT070 BKN150
      TEMPO 0123/0201 VRB20G30KT -TSRA BKN070CB
     FM020100 21010KT P6SM SCT080 BKN120
     FM020300 26007KT P6SM FEW080 SCT150=

USA.gov is the U.S. government's official web portal to all federal, state and local government web resources and services.